www.pogodaiklimat.ru

Погода и климат >> Архив погоды >> Россия >> Челябинская область >> Бродокалмак


ПОГОДА в Бродокалмаке

  • Прогноз погоды в Бродокалмаке
  • Монитор погоды в Бродокалмаке

АРХИВ ПОГОДЫ в Бродокалмаке

Время (UTC), дата Ветер
(напр.,м/с)
 
Видим.   Явления Облачность Т
(С)
Тd
(С)
f
(%)
Тe
(С)
Тes
(С)
Комфортность P
(гПа)
Po
(гПа)
Тmin
(С)
Tmax
(С)
R
(мм)
R24
(мм)
S
(см)
18 14.05 СВ 2 10 км 5/5 600 м
[Sc]
+3.9 +2.5 91 +1 +1 1025.9 1006.1
21 14.05 В 4 10 км 10/8 600 м
[Sc Ac As]
+5.6 -4.1 50 +2 +2 1027.1 1007.5
00 15.05 В 3 20 км 8/6 600 м
[Sc Ci fib]
+2.8 -4.7 58 -1 -1 1028.2 1008.3
03 15.05 ЮВ 4 20 км 8/3 600 м
[Sc Cs]
+4.8 -4.7 50 +1 +3 1029.4 1009.7 +2.5
06 15.05 В 3 20 км 8/3 600 м
[Sc Ci fib]
+9.2 -5.6 35 +8 +14 1029.1 1009.6
09 15.05 ЮВ 2 20 км 6/0 2000 м
[Ac lent Ci]
+13.2 -5.5 27 +13 +22 1027.7 1008.6
12 15.05 ЮВ 3 20 км 6/0
[Ci]
+14.2 -8.8 19 +14 +18 1026.6 1007.5
15 15.05 ЮВ 2 20 км 5/0
[Ci]
+12.6 -9.0 21 +12 +13 1026.0 1006.8 +14.4
18 15.05 штиль 0 10 км 3/0
[Ci fib]
+2.5 -2.1 72 +2 +2 1026.6 1006.8
21 15.05 штиль 0 10 км 3/0
[Ci fib]
-1.7 -3.7 86 -3 -3 1027.2 1007.1
00 16.05 штиль 0 20 км 6/4 600 м
[Sc Ac trans]
-2.7 -4.5 87 -4 -4 1027.4 1007.1
03 16.05 Ю 4 20 км 9/8 600 м
[Sc Ac trans Ci fib]
+8.0 -6.4 35 +6 +6 1025.9 1006.4 -2.8
06 16.05 Ю 5 20 км 8/0 2000 м
[Ac trans Cs]
+13.7 -9.3 19 +12 +17 1024.4 1005.3
09 16.05 Ю 6-10
{11}
20 км 9/9 600 м
[Cu Sc]
+17.1 -8.9 16 +16 +17 1021.9 1003.1
12 16.05 Ю 5
{10}
20 км 6/0
[Ci]
+18.7 -6.9 17 +18 +21 1019.2 1000.6
15 16.05 Ю 3
{10}
20 км 6/0
[Ci]
+17.4 -4.5 22 +17 +18 1017.0 998.3 +19.1
18 16.05 Ю 3 10 км 9/9 600 м
[Sc]
+14.2 -4.2 28 +14 +14 1015.0 996.2
21 16.05 Ю 3 10 км 10/10 600 м
[Sc]
+14.2 -3.6 29 +14 +14 1012.1 993.3
00 17.05 Ю 3 10 км слаб. ливневой дождь 10/10 600 м
[Cb cap]
+11.2 +8.1 81 +9 +9 1010.0 991.1
03 17.05 Ю 3 20 км в посл. час ливневой дождь 10/10 600 м
[Cb cap]
+11.5 +7.2 75 +10 +10 1006.5 987.7 +10.4 0.8
06 17.05 ЮЗ 4
{10}
10 км слаб. дождь 10/0 600 м
[As op]
+10.8 +9.4 91 +8 +10 1004.6 985.8
09 17.05 З 2 20 км в посл. час дождь 10/10 600 м
[Cb cap]
+12.6 +10.6 88 +12 +12 1004.3 985.6
12 17.05 СЗ 4
{11}
20 км осадки на расстоянии 9/9 600 м
[Cb cap]
+12.2 +7.6 73 +10 +11 1005.8 987.0
15 17.05 СЗ 4
{11}
20 км {ливн. осадки} 10/10 600 м
[Sc diur, vesp]
+6.9 +3.1 77 +3 +3 1009.1 989.9 +13.5 3
18 17.05 СЗ 2 10 км {ливн. осадки} 9/9 600 м
[Sc]
+6.4 -0.6 61 +4 +4 1010.2 991.0
21 17.05 З 2 10 км 5/4 600 м
[Sc]
+3.7 -2.8 62 +1 +1 1009.3 989.9
00 18.05 З 2 20 км 3/0
[Ci fib]
+1.1 -1.9 80 -2 -2 1009.2 989.6
03 18.05 З 2 20 км 1/0
[Ci fib]
+7.0 -0.1 61 +5 +10 1007.1 988.0 +0.6 0.3
06 18.05 З 4 20 км 8/8 600 м
[Cu Sc]
+11.5 -0.4 44 +10 +11 1004.8 985.9
09 18.05 З 4
{10}
20 км в посл. час ливневой дождь 10/6 600 м
[Cb cap Ac trans Ci fib]
+11.0 +1.2 51 +9 +11 1004.0 985.1
12 18.05 З 4 20 км осадки на расстоянии {гроза, ливн. осадки} 8/8 600 м
[Cb cap]
+10.3 +1.5 54 +8 +9 1003.0 984.1
15 18.05 З 3 20 км осадки на расстоянии {ливн. осадки} 8/6 600 м
[Cb cap Ac As]
+8.6 +1.5 61 +6 +6 1002.4 983.4 +12.0 0.1
18 18.05 ЮЗ 2 10 км {ливн. осадки} 8/8 600 м
[Sc]
+4.6 +2.0 83 +2 +2 1002.0 982.8
21 18.05 ЮЗ 2 10 км 10/8 600 м
[Sc Ci fib]
+4.5 +2.1 84 +2 +2 1001.1 981.9
00 19.05 З 2 20 км 10/10 600 м
[Cu Sc]
+3.5 +1.4 86 +1 +1 1000.7 981.5
03 19.05 З 3 10 км слаб. ливневой дождь 10/10 600 м
[Cb cap]
+3.3 +1.7 89 -1 -1 1000.9 981.6 +2.6 2
06 19.05 СЗ 2 20 км в посл. час ливневой дождь 10/10 600 м
[Cu Sc]
+5.0 +2.3 83 +2 +2 1001.4 982.2
09 19.05 ЮЗ 2
{11}
20 км {ливн. осадки} 9/9 600 м
[Cu Sc]
+6.9 +2.2 72 +5 +6 1001.9 982.9
12 19.05 З 4
{11}
20 км {ливн. осадки} 9/9 600 м
[Cu Sc]
+8.8 -1.5 48 +6 +7 1003.3 984.3
15 19.05 СЗ 3 20 км {ливн. осадки} 5/4 600 м
[Cb cap Ac cuf]
+7.3 -2.7 49 +5 +5 1004.6 985.5 +9.3 2
18 19.05 ЮЗ 2 10 км {ливн. осадки} 3/3 600 м
[Sc diur, vesp]
+2.1 -1.2 79 -1 -1 1006.0 986.5
21 19.05 З 1 10 км ясно +0.7 -1.5 85 -1 -1 1006.2 986.6
00 20.05 ЮЗ 1 20 км 3/3 600 м
[Sc]
-1.0 -2.3 91 -3 -3 1006.8 987.0
03 20.05 З 2 20 км ясно +5.1 +1.5 78 +3 +7 1006.3 987.0 -1.2
06 20.05 З 3 20 км осадки на расстоянии 8/8 600 м
[Cb cap]
+9.0 -1.5 48 +7 +9 1005.5 986.5
09 20.05 СЗ 3 20 км в посл. час ливневой снег 10/10 600 м
[Cb cap]
+9.0 -1.8 47 +7 +7 1005.9 986.9
12 20.05 З 4 20 км {ливн. осадки} 9/9 600 м
[Cu med, cong]
+10.1 -2.5 41 +8 +8 1006.1 987.2
15 20.05 ЮЗ 2 10 км слаб. ливневой дождь 10/10 600 м
[Cb cap]
+5.0 +3.1 88 +2 +2 1007.5 988.2 +10.1 1
18 20.05 З 2 10 км {ливн. осадки} 5/5 600 м
[Sc]
+3.3 +2.1 92 0 0 1008.3 988.9
21 20.05 З 1 10 км ясно +1.8 +0.5 91 0 0 1008.5 989.0
00 21.05 З 1 20 км 3/3 600 м
[Sc]
+0.7 -0.4 92 -1 -1 1008.8 989.2
03 21.05 З 3 20 км 5/0
[Ci]
+5.7 +2.4 79 +2 +6 1008.6 989.3 +0.5 0.0
06 21.05 СЗ 4-10
{10}
20 км 10/4 600 м
[Sc Ac As]
+7.6 +1.3 64 +5 +6 1008.6 989.5
09 21.05 СЗ 3
{12}
10 км слаб. ливневой дождь 10/10 600 м
[Cb cap]
+5.5 +1.6 76 +2 +2 1010.5 991.2
12 21.05 СЗ 4
{12}
20 км в посл. час ливневой дождь 9/4 600 м
[Cb cap Ci]
+7.4 +2.0 69 +4 +6 1011.2 992.0
15 21.05 З 2
{11}
20 км в посл. час ливневой дождь 9/9 600 м
[Cu Sc]
+5.0 +2.0 81 +2 +2 1012.8 993.4 +8.8 3

 

Местоположение метеостанции Бродокалмак (Челябинская область, Россия): широта 55.58 долгота 62.07 высота над уровнем моря 157 м.

В архиве по умолчанию представлена погода в Бродокалмаке за последнюю неделю. Архивные данные за месяц целиком и за предыдущие месяцы, начиная с января 2011 года, Вы можете получить, выбрав интересующий диапазон дат из раскрывающегося списка и нажав кнопку "Ввод!".


*Определитесь, кто Вы:
робот инопланетянин человек

Внимание! Время в таблицах - всемирное. Для получения местного времени необходимо прибавить поправку, которая равна 5 ч.

Смотрите также архив погоды в соседних городах и на ближайших метеорологических станциях:

Погода в Челябинске (Челябинская область, Россия) (68 км)
Погода в Аргаяше (Челябинская область, Россия) (74 км)
Погода в Шумихе (Курганская область, Россия) (88 км)
Погода в Далматово (Курганская область, Россия) (94 км)
Погода в Каменск-Уральском (Свердловская область, Россия) (95 км)
Погода в Шадринске (Курганская область, Россия) (113 км)
Погода в Верхнем Уфалее (Челябинская область, Россия) (124 км)
Погода в Сысерти (Свердловская область, Россия) (128 км)
Погода в Октябрьском (Челябинская область, Россия) (135 км)
Погода в Южноуральске (Челябинская область, Россия) (136 км)

Пояснения к столбцам:

Ветер - указаны скорость ветра в м/с - средняя за 10 мин, порывы в срок и между сроками (в фигурных скобках) и направление, откуда дует ветер: С - северный, СВ - северо-восточный, В - восточный, ЮВ - юго-восточный, Ю - южный, ЮЗ - юго-западный, З - западный, СЗ - северо-западный.
Видимость - горизонтальная дальность видимости в метрах или километрах. При видимости от 1 до 10 км при отсутствии осадков обычно наблюдается дымка, при ухудшении видимости до 1 км и менее - туман. В сухую погоду видимость может ухудшаться дымом, пылью или мглою.
Явления - указаны атмосферные явления, наблюдавшиеся в срок или в последний час перед сроком; фигурными скобками обозначены явления, наблюдавшиеся между сроками (за 1-3 часа до срока); квадратными скобками обозначены град или гололедные отложения с указанием их диаметра в мм.
Облачность - указаны через наклонную черту общая и нижняя облачность в баллах и высота нижней границы облаков в метрах; квадратными скобками обозначены формы облаков: Ci - перистые, Cs - перисто-слоистые, Cc - перисто-кучевые, Ac - высококучевые, As - высокослоистые, Sc - слоисто-кучевые, Ns - слоисто-дождевые, Cu - кучевые, Cb - кучево-дождевые. Подробнее классификацию облаков см. в Атласе облаков (PDF).
T - Температура воздуха - температура, измеренная на высоте 2 м над землей.
Td - Температура точки росы - температура, при понижении до которой содержащийся в воздухе водяной пар достигнет насыщения.
f - Относительная влажность воздуха - влажноcть воздуха, измеренная на высоте 2 м над землей.
Te - Эффективная температура - температура, которую ощущает одетый по сезону человек в тени. Характеристика душности погоды. При расчете учитывается влияние влажности воздуха и скорости ветра на теплоощущения человека.
Tes - Эффективная температура на солнце - температура, которую ощущает человек, с поправкой на солнечный нагрев. Характеристика знойности погоды. Зависит от высоты солнца над горизонтом, облачности и скорости ветра. Ночью, в пасмурную погоду, а также при ветре 12 м/с и более поправка равна нулю.
P - Атмосферное давление - приведенное к уровню моря атмосферное давление.
Po - Атмосферное давление - измеренное на уровне метеостанции атмосферное давление.
Tmin - Минимальная температура - минимум температуры воздуха на высоте 2 м над землей.
Tmax - Максимальная температура - максимум температуры воздуха на высоте 2 м над землей.
R - Количество осадков - Количество выпавших осадков за период времени, мм. При наведении курсора мыши на число - период времени, за который выпало указанное количество осадков.
R24 - Количество осадков - Количество выпавших осадков за 24 часа, мм.
S - Снежный покров - Высота снежного покрова, см. При наведении курсора мыши на число - состояние снежного покрова и степень покрытия местности в баллах.